date,time,SUV Intensity [MED/Hr],UV Index,Daily total [MED],Since Last [MED]
31/07/2023,23:59:36,0.002,0.0,4.248,4.248
01/08/2023,00:00:35,0.001,0.0,0.0,-4.248
01/08/2023,00:01:36,0.000,0.0,0.0,0.0
01/08/2023,00:02:36,0.000,0.0,0.0,0.0
01/08/2023,00:03:36,0.000,0.0,0.0,0.0
01/08/2023,00:04:35,0.000,0.0,0.0,0.0
01/08/2023,00:05:36,-0.000,0.0,0.0,0.0
01/08/2023,00:06:36,0.000,0.0,0.0,0.0
01/08/2023,00:07:36,0.000,0.0,0.0,0.0
01/08/2023,00:08:36,-0.000,0.0,0.0,0.0
01/08/2023,00:09:36,0.000,0.0,0.0,0.0
01/08/2023,00:10:34,-0.001,0.0,0.0,0.0
01/08/2023,00:11:34,0.000,0.0,0.0,0.0
01/08/2023,00:12:36,0.001,0.0,0.0,0.0
01/08/2023,00:13:36,0.000,0.0,0.0,0.0
01/08/2023,00:14:36,0.001,0.0,0.0,0.0
01/08/2023,00:15:35,-0.000,0.0,0.0,0.0
01/08/2023,00:16:36,-0.000,0.0,0.0,0.0
01/08/2023,00:17:36,0.000,0.0,0.0,0.0
01/08/2023,00:18:36,-0.000,0.0,0.0,0.0
01/08/2023,00:19:36,-0.000,0.0,0.0,0.0
01/08/2023,00:20:36,-0.000,0.0,0.0,0.0
01/08/2023,00:21:36,-0.000,0.0,0.0,0.0
01/08/2023,00:22:36,0.000,0.0,0.0,0.0
01/08/2023,00:23:36,0.001,0.0,0.0,0.0
01/08/2023,00:24:36,-0.001,0.0,0.0,0.0
01/08/2023,00:25:36,0.000,0.0,0.0,0.0
01/08/2023,00:26:36,0.000,0.0,0.0,0.0
01/08/2023,00:27:36,0.000,0.0,0.0,0.0
01/08/2023,00:28:36,-0.000,0.0,0.0,0.0
01/08/2023,00:29:36,0.000,0.0,0.0,0.0
01/08/2023,00:30:36,0.000,0.0,0.0,0.0
01/08/2023,00:31:36,0.001,0.0,0.0,0.0
01/08/2023,00:32:35,-0.000,0.0,0.0,0.0
01/08/2023,00:33:36,-0.000,0.0,0.0,0.0
01/08/2023,00:34:36,-0.000,0.0,0.0,0.0
01/08/2023,00:35:36,-0.000,0.0,0.0,0.0
01/08/2023,00:36:36,0.000,0.0,0.0,0.0
01/08/2023,00:37:36,0.000,0.0,0.0,0.0
01/08/2023,00:38:36,-0.000,0.0,0.0,0.0
01/08/2023,00:39:35,0.000,0.0,0.0,0.0
01/08/2023,00:40:36,-0.000,0.0,0.0,0.0
01/08/2023,00:41:36,-0.000,0.0,0.0,0.0
01/08/2023,00:42:36,-0.000,0.0,0.0,0.0
01/08/2023,00:43:36,0.000,0.0,0.0,0.0
01/08/2023,00:44:36,0.001,0.0,0.0,0.0
01/08/2023,00:45:36,0.000,0.0,0.0,0.0
01/08/2023,00:46:36,-0.000,0.0,0.0,0.0
01/08/2023,00:47:36,0.000,0.0,0.0,0.0
01/08/2023,00:48:36,0.000,0.0,0.0,0.0
01/08/2023,00:49:36,0.000,0.0,0.0,0.0
01/08/2023,00:50:36,0.000,0.0,0.0,0.0
01/08/2023,00:51:36,0.000,0.0,0.0,0.0
01/08/2023,00:52:36,0.000,0.0,0.0,0.0
01/08/2023,00:53:36,0.000,0.0,0.0,0.0
01/08/2023,00:54:36,-0.000,0.0,0.0,0.0
01/08/2023,00:55:36,0.001,0.0,0.0,0.0
01/08/2023,00:56:35,0.000,0.0,0.0,0.0
01/08/2023,00:57:36,-0.001,0.0,0.0,0.0
01/08/2023,00:58:36,-0.001,0.0,0.0,0.0
01/08/2023,00:59:36,-0.000,0.0,0.0,0.0
01/08/2023,01:00:36,0.000,0.0,0.0,0.0
01/08/2023,01:01:36,0.000,0.0,0.0,0.0
01/08/2023,01:02:36,0.001,0.0,0.0,0.0
01/08/2023,01:03:36,-0.000,0.0,0.0,0.0
01/08/2023,01:04:36,0.000,0.0,0.0,0.0
01/08/2023,01:05:36,0.000,0.0,0.0,0.0
01/08/2023,01:06:36,-0.000,0.0,0.0,0.0
01/08/2023,01:07:36,0.000,0.0,0.0,0.0
01/08/2023,01:08:36,-0.000,0.0,0.0,0.0
01/08/2023,01:09:36,0.000,0.0,0.0,0.0
01/08/2023,01:10:37,-0.000,0.0,0.0,0.0
01/08/2023,01:11:36,0.000,0.0,0.0,0.0
01/08/2023,01:12:36,-0.001,0.0,0.0,0.0
01/08/2023,01:13:36,-0.000,0.0,0.0,0.0
01/08/2023,01:14:36,0.000,0.0,0.0,0.0
01/08/2023,01:15:36,0.000,0.0,0.0,0.0
01/08/2023,01:16:36,-0.000,0.0,0.0,0.0
01/08/2023,01:17:36,-0.000,0.0,0.0,0.0
01/08/2023,01:18:36,-0.000,0.0,0.0,0.0
01/08/2023,01:19:36,0.001,0.0,0.0,0.0
01/08/2023,01:20:36,0.000,0.0,0.0,0.0
01/08/2023,01:21:36,0.001,0.0,0.0,0.0
01/08/2023,01:22:36,-0.000,0.0,0.0,0.0
01/08/2023,01:23:36,-0.000,0.0,0.0,0.0
01/08/2023,01:24:36,-0.001,0.0,0.0,0.0
01/08/2023,01:25:36,0.000,0.0,0.0,0.0
01/08/2023,01:26:36,0.000,0.0,0.0,0.0
01/08/2023,01:27:36,-0.001,0.0,0.0,0.0
01/08/2023,01:28:36,0.000,0.0,0.0,0.0
01/08/2023,01:29:36,0.001,0.0,0.0,0.0
01/08/2023,01:30:37,-0.000,0.0,0.0,0.0
01/08/2023,01:31:36,-0.000,0.0,0.0,0.0
01/08/2023,01:32:36,0.001,0.0,0.0,0.0
01/08/2023,01:33:36,0.000,0.0,0.0,0.0
01/08/2023,01:34:37,0.000,0.0,0.0,0.0
01/08/2023,01:35:36,0.001,0.0,0.0,0.0
01/08/2023,01:36:36,0.001,0.0,0.0,0.0
01/08/2023,01:37:36,-0.001,0.0,0.0,0.0
01/08/2023,01:38:36,0.000,0.0,0.0,0.0
01/08/2023,01:39:36,0.000,0.0,0.0,0.0
01/08/2023,01:40:36,0.000,0.0,0.0,0.0
01/08/2023,01:41:36,0.000,0.0,0.0,0.0
01/08/2023,01:42:36,0.001,0.0,0.0,0.0
01/08/2023,01:43:36,0.001,0.0,0.0,0.0
01/08/2023,01:44:36,-0.000,0.0,0.0,0.0
01/08/2023,01:45:36,0.000,0.0,0.0,0.0
01/08/2023,01:46:36,0.000,0.0,0.0,0.0
01/08/2023,01:47:36,0.000,0.0,0.0,0.0
01/08/2023,01:48:36,0.001,0.0,0.0,0.0
01/08/2023,01:49:36,-0.000,0.0,0.0,0.0
01/08/2023,01:50:37,-0.001,0.0,0.0,0.0
01/08/2023,01:51:36,-0.000,0.0,0.0,0.0
01/08/2023,01:52:36,-0.000,0.0,0.0,0.0
01/08/2023,01:53:36,0.000,0.0,0.0,0.0
01/08/2023,01:54:36,0.000,0.0,0.0,0.0
01/08/2023,01:55:36,0.000,0.0,0.0,0.0
01/08/2023,01:56:36,0.001,0.0,0.0,0.0
01/08/2023,01:57:36,0.000,0.0,0.0,0.0
01/08/2023,01:58:36,0.000,0.0,0.0,0.0
01/08/2023,01:59:36,0.000,0.0,0.0,0.0
01/08/2023,02:00:36,0.000,0.0,0.0,0.0
01/08/2023,02:01:36,-0.000,0.0,0.0,0.0
01/08/2023,02:02:36,0.000,0.0,0.0,0.0
01/08/2023,02:03:37,0.000,0.0,0.0,0.0
01/08/2023,02:04:36,0.000,0.0,0.0,0.0
01/08/2023,02:05:36,0.000,0.0,0.0,0.0
01/08/2023,02:06:37,-0.000,0.0,0.0,0.0
01/08/2023,02:07:36,0.001,0.0,0.0,0.0
01/08/2023,02:08:36,-0.000,0.0,0.0,0.0
01/08/2023,02:09:36,0.001,0.0,0.0,0.0
01/08/2023,02:10:36,-0.000,0.0,0.0,0.0
01/08/2023,02:11:36,0.000,0.0,0.0,0.0
01/08/2023,02:12:36,0.000,0.0,0.0,0.0
01/08/2023,02:13:36,0.000,0.0,0.0,0.0
01/08/2023,02:14:36,0.001,0.0,0.0,0.0
01/08/2023,02:15:36,0.000,0.0,0.0,0.0
01/08/2023,02:16:36,-0.000,0.0,0.0,0.0
01/08/2023,02:17:37,0.000,0.0,0.0,0.0
01/08/2023,02:18:36,0.000,0.0,0.0,0.0
01/08/2023,02:19:36,0.000,0.0,0.0,0.0
01/08/2023,02:20:36,0.000,0.0,0.0,0.0
01/08/2023,02:21:36,0.000,0.0,0.0,0.0
01/08/2023,02:22:36,0.001,0.0,0.0,0.0
01/08/2023,02:23:36,0.001,0.0,0.0,0.0
01/08/2023,02:24:37,0.001,0.0,0.0,0.0
01/08/2023,02:25:36,0.000,0.0,0.0,0.0
01/08/2023,02:26:36,0.000,0.0,0.0,0.0
01/08/2023,02:27:37,0.000,0.0,0.0,0.0
01/08/2023,02:28:37,-0.000,0.0,0.0,0.0
01/08/2023,02:29:36,0.000,0.0,0.0,0.0
01/08/2023,02:30:37,0.000,0.0,0.0,0.0
01/08/2023,02:31:36,0.000,0.0,0.0,0.0
01/08/2023,02:32:36,-0.000,0.0,0.0,0.0
01/08/2023,02:33:36,-0.000,0.0,0.0,0.0
01/08/2023,02:34:34,-0.000,0.0,0.0,0.0
01/08/2023,02:35:34,0.000,0.0,0.0,0.0
01/08/2023,02:36:36,0.000,0.0,0.0,0.0
01/08/2023,02:37:36,-0.001,0.0,0.0,0.0
01/08/2023,02:38:36,0.000,0.0,0.0,0.0
01/08/2023,02:39:36,-0.000,0.0,0.0,0.0
01/08/2023,02:40:36,0.000,0.0,0.0,0.0
01/08/2023,02:41:36,0.000,0.0,0.0,0.0
01/08/2023,02:42:37,0.000,0.0,0.0,0.0
01/08/2023,02:43:37,0.001,0.0,0.0,0.0
01/08/2023,02:44:36,0.000,0.0,0.0,0.0
01/08/2023,02:45:36,0.000,0.0,0.0,0.0
01/08/2023,02:46:36,0.001,0.0,0.0,0.0
01/08/2023,02:47:36,0.001,0.0,0.0,0.0
01/08/2023,02:48:36,0.001,0.0,0.0,0.0
01/08/2023,02:49:36,-0.001,0.0,0.0,0.0
01/08/2023,02:50:35,-0.000,0.0,0.0,0.0
01/08/2023,02:51:34,0.000,0.0,0.0,0.0
01/08/2023,02:52:36,0.000,0.0,0.0,0.0
01/08/2023,02:53:36,0.000,0.0,0.0,0.0
01/08/2023,02:54:36,0.000,0.0,0.0,0.0
01/08/2023,02:55:37,0.001,0.0,0.0,0.0
01/08/2023,02:56:36,0.000,0.0,0.0,0.0
01/08/2023,02:57:36,0.000,0.0,0.0,0.0
01/08/2023,02:58:36,0.000,0.0,0.0,0.0
01/08/2023,02:59:36,-0.000,0.0,0.0,0.0
01/08/2023,03:00:36,0.000,0.0,0.0,0.0
01/08/2023,03:01:36,0.000,0.0,0.0,0.0
01/08/2023,03:02:37,0.001,0.0,0.0,0.0
01/08/2023,03:03:36,-0.001,0.0,0.0,0.0
01/08/2023,03:04:36,0.000,0.0,0.0,0.0
01/08/2023,03:05:36,0.000,0.0,0.0,0.0
01/08/2023,03:06:37,0.001,0.0,0.0,0.0
01/08/2023,03:07:36,-0.001,0.0,0.0,0.0
01/08/2023,03:08:37,0.000,0.0,0.0,0.0
01/08/2023,03:09:36,0.001,0.0,0.0,0.0
01/08/2023,03:10:36,0.000,0.0,0.0,0.0
01/08/2023,03:11:36,-0.000,0.0,0.0,0.0
01/08/2023,03:12:37,0.000,0.0,0.0,0.0
01/08/2023,03:13:36,0.000,0.0,0.0,0.0
01/08/2023,03:14:36,-0.000,0.0,0.0,0.0
01/08/2023,03:15:36,0.000,0.0,0.0,0.0
01/08/2023,03:16:37,0.001,0.0,0.0,0.0
01/08/2023,03:17:36,0.000,0.0,0.0,0.0
01/08/2023,03:18:36,0.001,0.0,0.0,0.0
01/08/2023,03:19:36,0.000,0.0,0.0,0.0
01/08/2023,03:20:37,0.001,0.0,0.0,0.0
01/08/2023,03:21:36,0.001,0.0,0.0,0.0
01/08/2023,03:22:37,0.001,0.0,0.0,0.0
01/08/2023,03:23:36,0.001,0.0,0.0,0.0
01/08/2023,03:24:36,-0.000,0.0,0.0,0.0
01/08/2023,03:25:37,0.001,0.0,0.0,0.0
01/08/2023,03:26:36,-0.000,0.0,0.0,0.0
01/08/2023,03:27:36,0.001,0.0,0.0,0.0
01/08/2023,03:28:36,0.000,0.0,0.0,0.0
01/08/2023,03:29:38,-0.000,0.0,0.0,0.0
01/08/2023,03:30:37,0.000,0.0,0.0,0.0
01/08/2023,03:31:36,0.000,0.0,0.0,0.0
01/08/2023,03:32:36,0.001,0.0,0.0,0.0
01/08/2023,03:33:36,-0.000,0.0,0.0,0.0
01/08/2023,03:34:34,0.000,0.0,0.0,0.0
01/08/2023,03:35:35,0.000,0.0,0.0,0.0
01/08/2023,03:36:36,0.000,0.0,0.0,0.0
01/08/2023,03:37:36,0.000,0.0,0.0,0.0
01/08/2023,03:38:36,0.001,0.0,0.0,0.0
01/08/2023,03:39:36,0.001,0.0,0.0,0.0
01/08/2023,03:40:36,0.001,0.0,0.0,0.0
01/08/2023,03:41:36,0.000,0.0,0.0,0.0
01/08/2023,03:42:36,0.000,0.0,0.0,0.0
01/08/2023,03:43:36,0.000,0.0,0.0,0.0
01/08/2023,03:44:37,0.001,0.0,0.0,0.0
01/08/2023,03:45:37,0.000,0.0,0.0,0.0
01/08/2023,03:46:36,0.000,0.0,0.0,0.0
01/08/2023,03:47:36,0.000,0.0,0.0,0.0
01/08/2023,03:48:37,0.000,0.0,0.0,0.0
01/08/2023,03:49:36,0.000,0.0,0.0,0.0
01/08/2023,03:50:39,0.000,0.0,0.0,0.0
01/08/2023,03:51:37,0.001,0.0,0.0,0.0
01/08/2023,03:52:36,0.000,0.0,0.0,0.0
01/08/2023,03:53:37,0.000,0.0,0.0,0.0
01/08/2023,03:54:36,-0.000,0.0,0.0,0.0
01/08/2023,03:55:37,0.000,0.0,0.0,0.0
01/08/2023,03:56:36,-0.000,0.0,0.0,0.0
01/08/2023,03:57:37,0.000,0.0,0.0,0.0
01/08/2023,03:58:36,0.000,0.0,0.0,0.0
01/08/2023,03:59:36,0.001,0.0,0.0,0.0
01/08/2023,04:00:36,-0.000,0.0,0.0,0.0
01/08/2023,04:01:37,0.000,0.0,0.0,0.0
01/08/2023,04:02:36,0.001,0.0,0.0,0.0
01/08/2023,04:03:36,0.000,0.0,0.0,0.0
01/08/2023,04:04:36,0.001,0.0,0.0,0.0
01/08/2023,04:05:36,0.000,0.0,0.0,0.0
01/08/2023,04:06:36,0.000,0.0,0.0,0.0
01/08/2023,04:07:36,0.001,0.0,0.0,0.0
01/08/2023,04:08:36,0.000,0.0,0.0,0.0
01/08/2023,04:09:36,0.000,0.0,0.0,0.0
01/08/2023,04:10:37,0.001,0.0,0.0,0.0
01/08/2023,04:11:37,-0.000,0.0,0.0,0.0
01/08/2023,04:12:37,-0.000,0.0,0.0,0.0
01/08/2023,04:13:36,-0.000,0.0,0.0,0.0
01/08/2023,04:14:37,0.001,0.0,0.0,0.0
01/08/2023,04:15:37,0.001,0.0,0.0,0.0
01/08/2023,04:16:37,-0.000,0.0,0.0,0.0
01/08/2023,04:17:36,0.001,0.0,0.0,0.0
01/08/2023,04:18:36,0.001,0.0,0.0,0.0
01/08/2023,04:19:36,0.001,0.0,0.0,0.0
01/08/2023,04:20:36,0.001,0.0,0.0,0.0
01/08/2023,04:21:37,0.002,0.0,0.0,0.0
01/08/2023,04:22:36,0.001,0.0,0.0,0.0
01/08/2023,04:23:36,0.001,0.0,0.0,0.0
01/08/2023,04:24:36,0.001,0.0,0.0,0.0
01/08/2023,04:25:37,0.001,0.0,0.0,0.0
01/08/2023,04:26:36,0.001,0.0,0.0,0.0
01/08/2023,04:27:36,0.001,0.0,0.0,0.0
01/08/2023,04:28:37,0.001,0.0,0.0,0.0
01/08/2023,04:29:37,0.002,0.0,0.0,0.0
01/08/2023,04:30:36,0.001,0.0,0.0,0.0
01/08/2023,04:31:37,0.002,0.0,0.0,0.0
01/08/2023,04:32:36,0.002,0.0,0.0,0.0
01/08/2023,04:33:36,0.003,0.0,0.0,0.0
01/08/2023,04:34:36,0.004,0.0,0.0,0.0
01/08/2023,04:35:36,0.003,0.0,0.0,0.0
01/08/2023,04:36:36,0.004,0.0,0.0,0.0
01/08/2023,04:37:36,0.004,0.0,0.0,0.0
01/08/2023,04:38:37,0.005,0.0,0.0,0.0
01/08/2023,04:39:36,0.005,0.0,0.0,0.0
01/08/2023,04:40:36,0.005,0.0,0.0,0.0
01/08/2023,04:41:36,0.006,0.0,0.0,0.0
01/08/2023,04:42:37,0.005,0.0,0.0,0.0
01/08/2023,04:43:37,0.006,0.0,0.0,0.0
01/08/2023,04:44:37,0.005,0.0,0.0,0.0
01/08/2023,04:45:36,0.007,0.0,0.0,0.0
01/08/2023,04:46:36,0.007,0.0,0.0,0.0
01/08/2023,04:47:36,0.007,0.0,0.0,0.0
01/08/2023,04:48:36,0.007,0.0,0.0,0.0
01/08/2023,04:49:37,0.007,0.0,0.001,0.001
01/08/2023,04:50:36,0.008,0.0,0.001,0.0
01/08/2023,04:51:36,0.008,0.0,0.001,0.0
01/08/2023,04:52:36,0.008,0.0,0.001,0.0
01/08/2023,04:53:37,0.009,0.0,0.001,0.0
01/08/2023,04:54:37,0.010,0.0,0.001,0.0
01/08/2023,04:55:36,0.010,0.0,0.001,0.0
01/08/2023,04:56:36,0.010,0.0,0.002,0.001
01/08/2023,04:57:36,0.009,0.0,0.002,0.0
01/08/2023,04:58:37,0.011,0.0,0.002,0.0
01/08/2023,04:59:37,0.012,0.0,0.002,0.0
01/08/2023,05:00:37,0.012,0.0,0.002,0.0
01/08/2023,05:01:36,0.012,0.0,0.002,0.0
01/08/2023,05:02:36,0.013,0.0,0.003,0.001
01/08/2023,05:03:37,0.013,0.0,0.003,0.0
01/08/2023,05:04:36,0.014,0.0,0.003,0.0
01/08/2023,05:05:36,0.013,0.0,0.003,0.0
01/08/2023,05:06:37,0.014,0.0,0.004,0.001
01/08/2023,05:07:36,0.015,0.0,0.004,0.0
01/08/2023,05:08:36,0.016,0.0,0.004,0.0
01/08/2023,05:09:36,0.016,0.0,0.004,0.0
01/08/2023,05:10:37,0.017,0.0,0.005,0.001
01/08/2023,05:11:37,0.018,0.0,0.005,0.0
01/08/2023,05:12:36,0.019,0.0,0.005,0.0
01/08/2023,05:13:36,0.018,0.0,0.006,0.001
01/08/2023,05:14:36,0.019,0.0,0.006,0.0
01/08/2023,05:15:36,0.021,0.0,0.006,0.0
01/08/2023,05:16:37,0.021,0.0,0.007,0.001
01/08/2023,05:17:37,0.023,0.0,0.007,0.0
01/08/2023,05:18:37,0.021,0.0,0.007,0.0
01/08/2023,05:19:36,0.023,0.0,0.008,0.001
01/08/2023,05:20:37,0.024,0.0,0.008,0.0
01/08/2023,05:21:36,0.024,0.0,0.008,0.0
01/08/2023,05:22:36,0.025,0.0,0.009,0.001
01/08/2023,05:23:36,0.026,0.0,0.009,0.0
01/08/2023,05:24:36,0.027,0.0,0.01,0.001
01/08/2023,05:25:36,0.028,0.0,0.01,0.0
01/08/2023,05:26:36,0.028,0.0,0.011,0.001
01/08/2023,05:27:36,0.030,0.0,0.011,0.0
01/08/2023,05:28:36,0.030,0.0,0.012,0.001
01/08/2023,05:29:36,0.032,0.0,0.012,0.0
01/08/2023,05:30:36,0.032,0.0,0.013,0.001
01/08/2023,05:31:34,0.032,0.0,0.013,0.0
01/08/2023,05:32:34,0.033,0.0,0.014,0.001
01/08/2023,05:33:37,0.034,0.0,0.014,0.0
01/08/2023,05:34:36,0.034,0.0,0.015,0.001
01/08/2023,05:35:36,0.036,0.0,0.015,0.0
01/08/2023,05:36:37,0.036,0.0,0.016,0.001
01/08/2023,05:37:37,0.036,0.0,0.017,0.001
01/08/2023,05:38:37,0.037,0.0,0.017,0.0
01/08/2023,05:39:37,0.037,0.0,0.018,0.001
01/08/2023,05:40:37,0.038,0.0,0.018,0.0
01/08/2023,05:41:37,0.039,0.0,0.019,0.001
01/08/2023,05:42:37,0.039,0.0,0.02,0.001
01/08/2023,05:43:36,0.041,0.0,0.02,0.0
01/08/2023,05:44:36,0.042,0.0,0.021,0.001
01/08/2023,05:45:37,0.043,0.0,0.022,0.001
01/08/2023,05:46:37,0.044,0.0,0.023,0.001
01/08/2023,05:47:36,0.044,0.0,0.023,0.0
01/08/2023,05:48:37,0.045,0.0,0.024,0.001
01/08/2023,05:49:37,0.045,0.0,0.025,0.001
01/08/2023,05:50:36,0.047,0.0,0.026,0.001
01/08/2023,05:51:36,0.048,0.0,0.026,0.0
01/08/2023,05:52:36,0.049,0.0,0.027,0.001
01/08/2023,05:53:37,0.050,0.0,0.028,0.001
01/08/2023,05:54:36,0.049,0.0,0.029,0.001
01/08/2023,05:56:05,0.050,0.0,0.03,0.001
01/08/2023,05:57:37,0.050,0.0,0.031,0.001
01/08/2023,05:58:37,0.051,0.0,0.032,0.001
01/08/2023,05:59:37,0.051,0.0,0.033,0.001
01/08/2023,06:00:36,0.052,0.0,0.034,0.001
01/08/2023,06:01:37,0.054,0.0,0.035,0.001
01/08/2023,06:02:37,0.054,0.0,0.036,0.001
01/08/2023,06:03:37,0.055,0.0,0.036,0.0
01/08/2023,06:04:37,0.056,0.0,0.037,0.001
01/08/2023,06:05:37,0.058,0.0,0.038,0.001
01/08/2023,06:06:37,0.059,0.0,0.039,0.001
01/08/2023,06:07:36,0.060,0.0,0.04,0.001
01/08/2023,06:08:36,0.060,0.0,0.041,0.001
01/08/2023,06:09:36,0.061,0.0,0.042,0.001
01/08/2023,06:10:37,0.065,0.0,0.043,0.001
01/08/2023,06:11:37,0.069,0.0,0.045,0.002
01/08/2023,06:12:36,0.073,0.0,0.046,0.001
01/08/2023,06:13:37,0.078,0.0,0.047,0.001
01/08/2023,06:14:37,0.082,0.0,0.048,0.001
01/08/2023,06:15:37,0.085,0.0,0.05,0.002
01/08/2023,06:16:36,0.089,0.0,0.051,0.001
01/08/2023,06:17:36,0.095,0.0,0.053,0.002
01/08/2023,06:18:37,0.097,0.0,0.054,0.001
01/08/2023,06:19:37,0.100,0.0,0.056,0.002
01/08/2023,06:20:37,0.104,0.0,0.058,0.002
01/08/2023,06:21:37,0.107,0.0,0.059,0.001
01/08/2023,06:22:37,0.110,0.0,0.061,0.002
01/08/2023,06:23:36,0.112,0.0,0.063,0.002
01/08/2023,06:24:37,0.115,0.0,0.065,0.002
01/08/2023,06:25:36,0.116,0.0,0.067,0.002
01/08/2023,06:26:36,0.120,0.0,0.069,0.002
01/08/2023,06:27:36,0.122,0.0,0.071,0.002
01/08/2023,06:28:37,0.126,0.0,0.073,0.002
01/08/2023,06:29:37,0.127,0.0,0.075,0.002
01/08/2023,06:30:37,0.129,0.0,0.077,0.002
01/08/2023,06:31:37,0.132,0.0,0.079,0.002
01/08/2023,06:32:37,0.135,0.0,0.082,0.003
01/08/2023,06:33:37,0.138,0.0,0.084,0.002
01/08/2023,06:34:37,0.141,0.0,0.086,0.002
01/08/2023,06:35:37,0.143,0.0,0.089,0.003
01/08/2023,06:36:37,0.147,0.0,0.091,0.002
01/08/2023,06:37:36,0.150,0.0,0.093,0.002
01/08/2023,06:38:37,0.154,0.0,0.096,0.003
01/08/2023,06:39:34,0.157,0.0,0.098,0.002
01/08/2023,06:40:35,0.160,0.0,0.101,0.003
01/08/2023,06:41:37,0.159,0.0,0.104,0.003
01/08/2023,06:42:36,0.166,0.0,0.107,0.003
01/08/2023,06:43:37,0.164,0.0,0.109,0.002
01/08/2023,06:44:37,0.162,0.0,0.112,0.003
01/08/2023,06:45:37,0.155,0.0,0.115,0.003
01/08/2023,06:46:36,0.156,0.0,0.117,0.002
01/08/2023,06:47:36,0.156,0.0,0.12,0.003
01/08/2023,06:48:36,0.158,0.0,0.123,0.003
01/08/2023,06:49:37,0.162,0.0,0.125,0.002
01/08/2023,06:50:36,0.173,0.0,0.128,0.003
01/08/2023,06:51:37,0.194,0.0,0.131,0.003
01/08/2023,06:52:37,0.198,0.0,0.134,0.003
01/08/2023,06:53:37,0.192,0.0,0.138,0.004
01/08/2023,06:54:37,0.206,0.0,0.141,0.003
01/08/2023,06:55:37,0.209,0.0,0.144,0.003
01/08/2023,06:56:37,0.213,0.0,0.148,0.004
01/08/2023,06:57:37,0.218,1.0,0.151,0.003
01/08/2023,06:58:37,0.221,1.0,0.155,0.004
01/08/2023,06:59:37,0.226,1.0,0.159,0.004
01/08/2023,07:00:37,0.230,1.0,0.162,0.003
01/08/2023,07:01:37,0.233,1.0,0.166,0.004
01/08/2023,07:02:37,0.236,1.0,0.17,0.004
01/08/2023,07:03:36,0.242,1.0,0.174,0.004
01/08/2023,07:04:36,0.246,1.0,0.178,0.004
01/08/2023,07:05:37,0.249,1.0,0.182,0.004
01/08/2023,07:06:37,0.254,1.0,0.187,0.005
01/08/2023,07:07:37,0.258,1.0,0.191,0.004
01/08/2023,07:08:37,0.262,1.0,0.195,0.004
01/08/2023,07:09:37,0.267,1.0,0.2,0.005
01/08/2023,07:10:37,0.271,1.0,0.204,0.004
01/08/2023,07:11:36,0.276,1.0,0.209,0.005
01/08/2023,07:12:37,0.280,1.0,0.213,0.004
01/08/2023,07:13:37,0.284,1.0,0.218,0.005
01/08/2023,07:14:36,0.288,1.0,0.223,0.005
01/08/2023,07:15:37,0.292,1.0,0.227,0.004
01/08/2023,07:16:37,0.298,1.0,0.232,0.005
01/08/2023,07:17:37,0.302,1.0,0.237,0.005
01/08/2023,07:18:36,0.305,1.0,0.242,0.005
01/08/2023,07:19:35,0.312,1.0,0.247,0.005
01/08/2023,07:20:35,0.315,1.0,0.253,0.006
01/08/2023,07:21:36,0.321,1.0,0.258,0.005
01/08/2023,07:22:37,0.326,1.0,0.264,0.006
01/08/2023,07:23:36,0.331,1.0,0.269,0.005
01/08/2023,07:24:37,0.336,1.0,0.275,0.006
01/08/2023,07:25:37,0.342,1.0,0.28,0.005
01/08/2023,07:26:37,0.346,1.0,0.286,0.006
01/08/2023,07:27:37,0.351,1.0,0.292,0.006
01/08/2023,07:28:36,0.357,1.0,0.298,0.006
01/08/2023,07:29:37,0.361,1.0,0.304,0.006
01/08/2023,07:30:37,0.367,1.0,0.31,0.006
01/08/2023,07:31:37,0.372,1.0,0.316,0.006
01/08/2023,07:32:37,0.378,1.0,0.322,0.006
01/08/2023,07:33:36,0.382,1.0,0.328,0.006
01/08/2023,07:34:36,0.388,1.0,0.335,0.007
01/08/2023,07:35:36,0.394,1.0,0.341,0.006
01/08/2023,07:36:36,0.399,1.0,0.348,0.007
01/08/2023,07:37:36,0.404,1.0,0.355,0.007
01/08/2023,07:38:36,0.411,1.0,0.362,0.007
01/08/2023,07:40:00,0.418,1.0,0.371,0.009
01/08/2023,07:41:37,0.428,1.0,0.382,0.011
01/08/2023,07:42:37,0.433,1.0,0.39,0.008
01/08/2023,07:43:37,0.440,1.0,0.397,0.007
01/08/2023,07:44:37,0.445,1.0,0.404,0.007
01/08/2023,07:45:37,0.451,1.0,0.412,0.008
01/08/2023,07:46:37,0.458,1.0,0.419,0.007
01/08/2023,07:47:37,0.464,1.0,0.427,0.008
01/08/2023,07:48:37,0.473,1.0,0.435,0.008
01/08/2023,07:49:37,0.478,1.0,0.443,0.008
01/08/2023,07:50:37,0.484,1.0,0.451,0.008
01/08/2023,07:51:37,0.490,1.0,0.459,0.008
01/08/2023,07:52:36,0.498,1.0,0.467,0.008
01/08/2023,07:53:36,0.504,1.0,0.475,0.008
01/08/2023,07:54:37,0.512,1.0,0.484,0.009
01/08/2023,07:55:37,0.519,1.0,0.492,0.008
01/08/2023,07:56:37,0.526,1.0,0.501,0.009
01/08/2023,07:57:37,0.532,1.0,0.51,0.009
01/08/2023,07:58:37,0.534,1.0,0.519,0.009
01/08/2023,07:59:37,0.547,1.0,0.528,0.009
01/08/2023,08:00:37,0.555,1.0,0.537,0.009
01/08/2023,08:01:37,0.564,1.0,0.546,0.009
01/08/2023,08:02:37,0.431,1.0,0.554,0.008
01/08/2023,08:03:37,0.575,1.0,0.563,0.009
01/08/2023,08:04:37,0.582,1.0,0.571,0.008
01/08/2023,08:05:37,0.601,1.0,0.581,0.01
01/08/2023,08:06:37,0.602,1.0,0.591,0.01
01/08/2023,08:07:37,0.445,1.0,0.601,0.01
01/08/2023,08:08:37,0.396,1.0,0.607,0.006
01/08/2023,08:09:37,0.429,1.0,0.614,0.007
01/08/2023,08:10:36,0.440,1.0,0.622,0.008
01/08/2023,08:11:37,0.447,1.0,0.629,0.007
01/08/2023,08:12:36,0.431,1.0,0.636,0.007
01/08/2023,08:13:35,0.456,1.0,0.644,0.008
01/08/2023,08:14:35,0.627,1.0,0.653,0.009
01/08/2023,08:15:35,0.490,1.0,0.663,0.01
01/08/2023,08:16:36,0.488,1.0,0.672,0.009
01/08/2023,08:17:37,0.514,1.0,0.682,0.01
01/08/2023,08:18:36,0.703,2.0,0.691,0.009
01/08/2023,08:19:37,0.627,1.0,0.702,0.011
01/08/2023,08:20:37,0.474,1.0,0.71,0.008
01/08/2023,08:21:37,0.577,1.0,0.719,0.009
01/08/2023,08:22:37,0.488,1.0,0.727,0.008
01/08/2023,08:23:36,0.706,2.0,0.737,0.01
01/08/2023,08:24:37,0.598,1.0,0.749,0.012
01/08/2023,08:25:36,0.651,1.0,0.759,0.01
01/08/2023,08:26:36,0.751,2.0,0.771,0.012
01/08/2023,08:27:37,0.769,2.0,0.784,0.013
01/08/2023,08:28:37,0.576,1.0,0.797,0.013
01/08/2023,08:29:37,0.579,1.0,0.807,0.01
01/08/2023,08:30:37,0.766,2.0,0.819,0.012
01/08/2023,08:31:36,0.504,1.0,0.83,0.011
01/08/2023,08:32:36,0.661,2.0,0.839,0.009
01/08/2023,08:33:37,0.794,2.0,0.852,0.013
01/08/2023,08:34:37,0.806,2.0,0.865,0.013
01/08/2023,08:35:37,0.817,2.0,0.878,0.013
01/08/2023,08:36:37,0.831,2.0,0.892,0.014
01/08/2023,08:37:37,0.765,2.0,0.906,0.014
01/08/2023,08:38:36,0.577,1.0,0.917,0.011
01/08/2023,08:39:41,0.869,2.0,0.932,0.015
01/08/2023,08:40:38,0.766,2.0,0.945,0.013
01/08/2023,08:41:37,0.551,1.0,0.955,0.01
01/08/2023,08:42:36,0.786,2.0,0.966,0.011
01/08/2023,08:43:37,0.826,2.0,0.979,0.013
01/08/2023,08:44:37,0.516,1.0,0.988,0.009
01/08/2023,08:45:37,0.607,1.0,0.997,0.009
01/08/2023,08:46:37,0.772,2.0,1.008,0.011
01/08/2023,08:47:37,0.610,1.0,1.022,0.014
01/08/2023,08:48:37,0.563,1.0,1.032,0.01
01/08/2023,08:49:37,0.672,2.0,1.041,0.009
01/08/2023,08:50:37,0.574,1.0,1.051,0.01
01/08/2023,08:51:37,0.845,2.0,1.062,0.011
01/08/2023,08:52:37,0.649,1.0,1.073,0.011
01/08/2023,08:53:36,0.835,2.0,1.087,0.014
01/08/2023,08:54:37,0.963,2.0,1.101,0.014
01/08/2023,08:55:36,1.006,2.0,1.118,0.017
01/08/2023,08:56:37,0.811,2.0,1.135,0.017
01/08/2023,08:57:37,0.761,2.0,1.151,0.016
01/08/2023,08:58:37,0.694,2.0,1.163,0.012
01/08/2023,08:59:37,0.941,2.0,1.178,0.015
01/08/2023,09:00:37,0.661,2.0,1.19,0.012
01/08/2023,09:01:36,0.521,1.0,1.199,0.009
01/08/2023,09:02:36,0.486,1.0,1.208,0.009
01/08/2023,09:03:37,0.514,1.0,1.216,0.008
01/08/2023,09:04:37,0.518,1.0,1.225,0.009
01/08/2023,09:05:37,0.475,1.0,1.233,0.008
01/08/2023,09:06:37,0.453,1.0,1.241,0.008
01/08/2023,09:07:37,0.490,1.0,1.249,0.008
01/08/2023,09:08:37,0.555,1.0,1.257,0.008
01/08/2023,09:09:37,0.618,1.0,1.267,0.01
01/08/2023,09:10:37,0.689,2.0,1.278,0.011
01/08/2023,09:11:36,0.787,2.0,1.291,0.013
01/08/2023,09:12:36,0.701,2.0,1.303,0.012
01/08/2023,09:13:37,0.707,2.0,1.315,0.012
01/08/2023,09:14:37,1.195,3.0,1.329,0.014
01/08/2023,09:15:37,1.212,3.0,1.349,0.02
01/08/2023,09:16:37,0.772,2.0,1.366,0.017
01/08/2023,09:17:36,0.714,2.0,1.379,0.013
01/08/2023,09:18:37,0.739,2.0,1.391,0.012
01/08/2023,09:19:37,1.192,3.0,1.406,0.015
01/08/2023,09:20:37,0.715,2.0,1.424,0.018
01/08/2023,09:21:36,0.761,2.0,1.439,0.015
01/08/2023,09:22:36,0.886,2.0,1.454,0.015
01/08/2023,09:23:38,1.062,2.0,1.474,0.02
01/08/2023,09:24:37,0.965,2.0,1.488,0.014
01/08/2023,09:25:37,1.334,3.0,1.509,0.021
01/08/2023,09:26:37,1.160,3.0,1.531,0.022
01/08/2023,09:27:37,1.364,3.0,1.552,0.021
01/08/2023,09:28:37,0.881,2.0,1.571,0.019
01/08/2023,09:29:37,0.857,2.0,1.585,0.014
01/08/2023,09:30:37,0.652,2.0,1.597,0.012
01/08/2023,09:31:37,0.651,1.0,1.608,0.011
01/08/2023,09:32:37,0.681,2.0,1.62,0.012
01/08/2023,09:33:37,0.842,2.0,1.63,0.01
01/08/2023,09:34:37,0.659,2.0,1.644,0.014
01/08/2023,09:35:37,0.706,2.0,1.655,0.011
01/08/2023,09:36:37,0.812,2.0,1.668,0.013
01/08/2023,09:37:36,1.016,2.0,1.686,0.018
01/08/2023,09:38:37,1.496,3.0,1.709,0.023
01/08/2023,09:39:37,1.011,2.0,1.728,0.019
01/08/2023,09:40:36,1.186,3.0,1.747,0.019
01/08/2023,09:41:37,1.523,4.0,1.769,0.022
01/08/2023,09:42:37,1.174,3.0,1.791,0.022
01/08/2023,09:43:37,0.971,2.0,1.807,0.016
01/08/2023,09:44:37,1.349,3.0,1.828,0.021
01/08/2023,09:45:37,0.794,2.0,1.845,0.017
01/08/2023,09:46:37,0.724,2.0,1.857,0.012
01/08/2023,09:47:37,0.663,2.0,1.869,0.012
01/08/2023,09:48:37,0.623,1.0,1.88,0.011
01/08/2023,09:49:37,0.626,1.0,1.89,0.01
01/08/2023,09:50:37,0.844,2.0,1.902,0.012
01/08/2023,09:51:37,0.840,2.0,1.919,0.017
01/08/2023,09:52:37,1.198,3.0,1.937,0.018
01/08/2023,09:53:37,1.582,4.0,1.961,0.024
01/08/2023,09:54:37,1.362,3.0,1.986,0.025
01/08/2023,09:55:37,0.916,2.0,2.003,0.017
01/08/2023,09:56:37,0.912,2.0,2.018,0.015
01/08/2023,09:57:37,0.944,2.0,2.034,0.016
01/08/2023,09:58:37,1.001,2.0,2.05,0.016